| time (UTC) | temp C | wind direction | speed KPH | gust KPH | rain 1hr cm | rain 24hr cm | rain mn cm | humidity % | barometer mb |
| 20260505235541 | 10 | 0 | 0.0 | 6.4 | 0.15 | 0.91 | 0.30 | 96 | 1007.0 |
| 20260505235045 | 10 | 0 | 0.0 | 6.4 | 0.13 | 0.89 | 0.28 | 96 | 1007.1 |
| 20260505234606 | 10 | 0 | 0.0 | 1.6 | 0.15 | 0.89 | 0.28 | 96 | 1007.3 |
| 20260505234047 | 10 | 0 | 0.0 | 1.6 | 0.15 | 0.86 | 0.28 | 96 | 1007.4 |
| 20260505233547 | 10 | 0 | 0.0 | 4.8 | 0.13 | 0.84 | 0.25 | 96 | 1007.3 |
| 20260505233048 | 10 | 0 | 0.0 | 4.8 | 0.15 | 0.84 | 0.25 | 96 | 1007.3 |
| 20260505232547 | 10 | 0 | 0.0 | 0.0 | 0.15 | 0.84 | 0.23 | 96 | 1007.4 |
| 20260505232047 | 10 | 0 | 0.0 | 6.4 | 0.15 | 0.81 | 0.20 | 96 | 1007.4 |
| 20260505231605 | 10 | 0 | 0.0 | 6.4 | 0.18 | 0.81 | 0.20 | 96 | 1007.5 |
| 20260505231045 | 10 | 0 | 0.0 | 6.4 | 0.15 | 0.79 | 0.18 | 96 | 1007.4 |
| 20260505230545 | 10 | 0 | 0.0 | 3.2 | 0.18 | 0.79 | 0.18 | 96 | 1007.5 |
| 20260505230054 | 10 | 0 | 0.0 | 0.0 | 0.18 | 0.76 | 0.18 | 96 | 1007.5 |
| 20260505225547 | 10 | 0 | 0.0 | 0.0 | 0.15 | 0.74 | 0.15 | 96 | 1007.6 |
| 20260505225047 | 10 | 0 | 0.0 | 1.6 | 0.18 | 0.74 | 0.15 | 96 | 1007.6 |
| 20260505224551 | 10 | 0 | 0.0 | 1.6 | 0.15 | 0.74 | 0.13 | 96 | 1007.7 |
| 20260505224050 | 10 | 0 | 0.0 | 0.0 | 0.15 | 0.71 | 0.10 | 96 | 1007.6 |
| 20260505223546 | 10 | 0 | 0.0 | 0.0 | 0.15 | 0.69 | 0.08 | 96 | 1007.7 |
| 20260505223103 | 10 | 0 | 0.0 | 0.0 | 0.18 | 0.69 | 0.08 | 96 | 1007.7 |
| 20260505222548 | 10 | 0 | 0.0 | 6.4 | 0.15 | 0.66 | 0.08 | 96 | 1007.7 |
| 20260505222051 | 10 | 0 | 0.0 | 6.4 | 0.15 | 0.64 | 0.05 | 96 | 1007.7 |
| 20260505221558 | 10 | 0 | 0.0 | 0.0 | 0.13 | 0.64 | 0.03 | 96 | 1007.8 |
| 20260505221048 | 10 | 0 | 0.0 | 1.6 | 0.15 | 0.64 | 0.03 | 96 | 1007.8 |
| 20260505220546 | 10 | 0 | 0.0 | 1.6 | 0.13 | 0.61 | 0.00 | 96 | 1007.8 |
| 20260505220054 | 10 | 0 | 0.0 | 0.0 | 0.13 | 0.58 | 0.00 | 96 | 1007.8 |
| 20260505215547 | 10 | 0 | 0.0 | 0.0 | 0.13 | 0.61 | 0.58 | 96 | 1007.8 |
| 20260505215047 | 10 | 0 | 0.0 | 0.0 | 0.13 | 0.58 | 0.56 | 96 | 1007.9 |
| 20260505214612 | 10 | 0 | 0.0 | 0.0 | 0.13 | 0.58 | 0.56 | 96 | 1007.9 |
| 20260505214046 | 10 | 0 | 0.0 | 0.0 | 0.10 | 0.56 | 0.56 | 96 | 1008.1 |
| 20260505213545 | 10 | 0 | 0.0 | 1.6 | 0.10 | 0.56 | 0.53 | 96 | 1008.0 |
| 20260505213057 | 10 | 0 | 0.0 | 1.6 | 0.08 | 0.53 | 0.51 | 96 | 1008.0 |
| 20260505212545 | 10 | 0 | 0.0 | 1.6 | 0.08 | 0.51 | 0.48 | 96 | 1008.1 |
| 20260505212048 | 10 | 0 | 0.0 | 0.0 | 0.08 | 0.51 | 0.48 | 96 | 1008.2 |
| 20260505211551 | 10 | 0 | 0.0 | 0.0 | 0.08 | 0.48 | 0.46 | 96 | 1008.1 |
| 20260505211047 | 10 | 0 | 0.0 | 0.0 | 0.10 | 0.48 | 0.46 | 96 | 1008.2 |
| 20260505210546 | 10 | 0 | 0.0 | 0.0 | 0.08 | 0.46 | 0.46 | 96 | 1008.1 |
| 20260505210050 | 10 | 0 | 0.0 | 9.7 | 0.08 | 0.46 | 0.46 | 96 | 1008.3 |
| 20260505205547 | 10 | 0 | 0.0 | 9.7 | 0.10 | 0.46 | 0.46 | 96 | 1008.3 |
| 20260505205048 | 10 | 0 | 0.0 | 4.8 | 0.08 | 0.46 | 0.43 | 96 | 1008.3 |
| 20260505204549 | 10 | 0 | 0.0 | 4.8 | 0.08 | 0.46 | 0.43 | 96 | 1008.3 |
| 20260505204046 | 10 | 0 | 0.0 | 4.8 | 0.10 | 0.46 | 0.43 | 96 | 1008.3 |
| 20260505203546 | 10 | 0 | 0.0 | 3.2 | 0.08 | 0.43 | 0.41 | 96 | 1008.3 |
| 20260505203054 | 10 | 0 | 0.0 | 3.2 | 0.08 | 0.43 | 0.41 | 96 | 1008.3 |
| 20260505202542 | 10 | 0 | 0.0 | 0.0 | 0.08 | 0.41 | 0.38 | 96 | 1008.5 |
| 20260505202045 | 10 | 0 | 0.0 | 3.2 | 0.08 | 0.41 | 0.38 | 96 | 1008.3 |
| 20260505201557 | 10 | 0 | 0.0 | 3.2 | 0.08 | 0.38 | 0.36 | 96 | 1008.3 |
| 20260505201045 | 10 | 0 | 0.0 | 3.2 | 0.08 | 0.36 | 0.36 | 96 | 1008.4 |
| 20260505200545 | 10 | 0 | 0.0 | 1.6 | 0.08 | 0.36 | 0.36 | 96 | 1008.2 |
| 20260505195541 | 10 | 0 | 0.0 | 9.7 | 0.08 | 0.36 | 0.33 | 95 | 1008.3 |
| 20260505195044 | 10 | 0 | 0.0 | 9.7 | 0.08 | 0.36 | 0.33 | 95 | 1008.4 |
| 20260505194555 | 10 | 0 | 0.0 | 1.6 | 0.08 | 0.36 | 0.33 | 95 | 1008.3 |
| 20260505194045 | 10 | 0 | 0.0 | 1.6 | 0.08 | 0.33 | 0.30 | 95 | 1008.3 |
| 20260505193545 | 10 | 0 | 0.0 | 1.6 | 0.08 | 0.33 | 0.30 | 95 | 1008.4 |
| 20260505193050 | 10 | 0 | 0.0 | 4.8 | 0.08 | 0.33 | 0.30 | 95 | 1008.4 |
| 20260505192546 | 11 | 0 | 0.0 | 4.8 | 0.05 | 0.30 | 0.28 | 95 | 1008.4 |
| 20260505192044 | 11 | 0 | 0.0 | 4.8 | 0.05 | 0.30 | 0.28 | 95 | 1008.3 |
| 20260505191554 | 11 | 0 | 0.0 | 3.2 | 0.05 | 0.30 | 0.28 | 95 | 1008.4 |
| 20260505191044 | 11 | 0 | 0.0 | 1.6 | 0.03 | 0.28 | 0.28 | 95 | 1008.4 |
| 20260505190545 | 11 | 0 | 0.0 | 4.8 | 0.03 | 0.28 | 0.28 | 95 | 1008.4 |
| 20260505190051 | 11 | 0 | 0.0 | 4.8 | 0.00 | 0.28 | 0.25 | 95 | 1008.4 |
| 20260505185547 | 11 | 0 | 0.0 | 3.2 | 0.00 | 0.28 | 0.25 | 95 | 1008.3 |
| 20260505185042 | 11 | 0 | 0.0 | 4.8 | 0.00 | 0.28 | 0.23 | 95 | 1008.3 |
| 20260505184554 | 11 | 0 | 0.0 | 8.0 | 0.00 | 0.28 | 0.23 | 95 | 1008.3 |
| 20260505184042 | 11 | 0 | 0.0 | 8.0 | 0.00 | 0.28 | 0.23 | 95 | 1008.4 |
| 20260505183544 | 11 | 0 | 0.0 | 8.0 | 0.00 | 0.28 | 0.23 | 95 | 1008.5 |
| 20260505183103 | 11 | 0 | 0.0 | 8.0 | 0.00 | 0.28 | 0.23 | 95 | 1008.3 |
| 20260505182544 | 11 | 0 | 0.0 | 6.4 | 0.00 | 0.28 | 0.23 | 95 | 1008.3 |
| 20260505182044 | 11 | 0 | 0.0 | 0.0 | 0.00 | 0.28 | 0.23 | 95 | 1008.3 |
| 20260505181552 | 11 | 0 | 0.0 | 6.4 | 0.00 | 0.28 | 0.23 | 95 | 1008.4 |
| 20260505181046 | 11 | 0 | 0.0 | 6.4 | 0.00 | 0.28 | 0.23 | 95 | 1008.4 |
| 20260505180544 | 11 | 0 | 0.0 | 6.4 | 0.00 | 0.28 | 0.23 | 95 | 1008.5 |
| 20260505180053 | 11 | 0 | 0.0 | 4.8 | 0.00 | 0.28 | 0.23 | 95 | 1008.5 |
| 20260505175541 | 11 | 0 | 0.0 | 4.8 | 0.00 | 0.36 | 0.23 | 95 | 1008.5 |
| 20260505175045 | 11 | 0 | 0.0 | 4.8 | 0.00 | 0.36 | 0.23 | 95 | 1008.5 |
| 20260505174557 | 11 | 0 | 0.0 | 6.4 | 0.00 | 0.36 | 0.23 | 95 | 1008.4 |
| 20260505174042 | 11 | 0 | 0.0 | 6.4 | 0.00 | 0.36 | 0.23 | 95 | 1008.6 |
| 20260505173541 | 11 | 0 | 0.0 | 4.8 | 0.00 | 0.36 | 0.23 | 95 | 1008.5 |
| 20260505173054 | 11 | 0 | 0.0 | 4.8 | 0.00 | 0.36 | 0.23 | 95 | 1008.6 |
| 20260505172545 | 11 | 0 | 0.0 | 0.0 | 0.00 | 0.36 | 0.23 | 95 | 1008.6 |
| 20260505172048 | 11 | 0 | 0.0 | 0.0 | 0.00 | 0.36 | 0.23 | 95 | 1008.6 |
| 20260505171551 | 11 | 0 | 0.0 | 6.4 | 0.00 | 0.36 | 0.23 | 95 | 1008.5 |
| 20260505171046 | 11 | 0 | 0.0 | 6.4 | 0.00 | 0.36 | 0.23 | 95 | 1008.6 |
| 20260505170547 | 11 | 337 | 0.0 | 6.4 | 0.00 | 0.36 | 0.23 | 96 | 1008.7 |
| 20260505170050 | 11 | 0 | 0.0 | 0.0 | 0.00 | 0.36 | 0.23 | 95 | 1008.6 |
| 20260505165547 | 11 | 0 | 0.0 | 4.8 | 0.00 | 0.38 | 0.23 | 95 | 1008.7 |
| 20260505165048 | 11 | 0 | 0.0 | 4.8 | 0.00 | 0.38 | 0.23 | 95 | 1008.7 |
| 20260505164551 | 11 | 0 | 0.0 | 4.8 | 0.00 | 0.38 | 0.23 | 95 | 1008.8 |
| 20260505164047 | 11 | 0 | 0.0 | 6.4 | 0.00 | 0.38 | 0.23 | 95 | 1008.8 |
| 20260505163547 | 11 | 0 | 0.0 | 6.4 | 0.00 | 0.38 | 0.23 | 95 | 1008.9 |
| 20260505163055 | 11 | 0 | 0.0 | 0.0 | 0.00 | 0.38 | 0.23 | 95 | 1008.9 |
| 20260505162545 | 11 | 0 | 0.0 | 9.7 | 0.00 | 0.38 | 0.23 | 95 | 1008.9 |
| 20260505162046 | 11 | 0 | 0.0 | 9.7 | 0.00 | 0.38 | 0.23 | 95 | 1008.8 |
| 20260505161600 | 11 | 0 | 0.0 | 9.7 | 0.00 | 0.38 | 0.23 | 96 | 1008.8 |
| 20260505161046 | 11 | 0 | 0.0 | 4.8 | 0.00 | 0.38 | 0.23 | 95 | 1008.9 |
| 20260505160547 | 11 | 0 | 0.0 | 8.0 | 0.00 | 0.38 | 0.23 | 95 | 1008.8 |
| 20260505153101 | 11 | 0 | 0.0 | 8.0 | 0.00 | 0.41 | 0.23 | 95 | 1009.1 |
| 20260505152546 | 11 | 0 | 0.0 | 8.0 | 0.00 | 0.41 | 0.23 | 95 | 1009.1 |
| 20260505152045 | 11 | 0 | 0.0 | 6.4 | 0.00 | 0.41 | 0.23 | 95 | 1009.2 |
| 20260505151604 | 11 | 0 | 0.0 | 6.4 | 0.00 | 0.41 | 0.23 | 96 | 1009.3 |
| 20260505151044 | 11 | 0 | 0.0 | 6.4 | 0.00 | 0.41 | 0.23 | 96 | 1009.2 |
| 20260505150544 | 11 | 0 | 0.0 | 6.4 | 0.00 | 0.41 | 0.23 | 96 | 1009.3 |
| 20260505140547 | 11 | 0 | 1.6 | 12.9 | 0.00 | 0.41 | 0.23 | 96 | 1009.5 |
| 20260505140111 | 11 | 0 | 0.0 | 0.0 | 0.00 | 0.41 | 0.23 | 96 | 1009.5 |
| 20260505124607 | 12 | 0 | 0.0 | 4.8 | 0.00 | 0.41 | 0.23 | 96 | 1009.9 |
| 20260505124047 | 12 | 0 | 0.0 | 4.8 | 0.00 | 0.41 | 0.23 | 95 | 1010.0 |
| 20260505123546 | 12 | 0 | 0.0 | 0.0 | 0.00 | 0.41 | 0.23 | 96 | 1009.9 |
| 20260505123054 | 12 | 0 | 0.0 | 8.0 | 0.00 | 0.41 | 0.23 | 96 | 1009.9 |
| 20260505122547 | 12 | 0 | 0.0 | 8.0 | 0.00 | 0.41 | 0.23 | 96 | 1009.9 |
| 20260505122044 | 12 | 332 | 0.0 | 8.0 | 0.00 | 0.41 | 0.23 | 95 | 1009.9 |
| 20260505121557 | 12 | 0 | 0.0 | 8.0 | 0.00 | 0.41 | 0.23 | 96 | 1009.9 |
| 20260505121044 | 12 | 0 | 0.0 | 4.8 | 0.00 | 0.41 | 0.23 | 96 | 1009.9 |
| 20260505120546 | 12 | 0 | 0.0 | 4.8 | 0.00 | 0.41 | 0.23 | 96 | 1009.9 |
| 20260505120057 | 12 | 0 | 0.0 | 4.8 | 0.00 | 0.41 | 0.23 | 96 | 1009.9 |
| 20260505115545 | 12 | 0 | 0.0 | 1.6 | 0.00 | 0.41 | 0.23 | 96 | 1009.9 |
| 20260505115048 | 12 | 0 | 0.0 | 1.6 | 0.00 | 0.41 | 0.23 | 96 | 1010.0 |
| 20260505114559 | 12 | 0 | 0.0 | 0.0 | 0.00 | 0.41 | 0.23 | 96 | 1010.0 |
| 20260505114047 | 12 | 0 | 0.0 | 1.6 | 0.03 | 0.41 | 0.23 | 95 | 1010.0 |
| 20260505113547 | 12 | 0 | 0.0 | 3.2 | 0.03 | 0.41 | 0.23 | 96 | 1010.0 |
| 20260505113100 | 12 | 0 | 0.0 | 3.2 | 0.05 | 0.41 | 0.23 | 96 | 1010.0 |
| 20260505112546 | 12 | 0 | 0.0 | 9.7 | 0.08 | 0.41 | 0.23 | 96 | 1010.1 |
| 20260505112047 | 12 | 0 | 0.0 | 9.7 | 0.08 | 0.41 | 0.23 | 95 | 1010.1 |
| 20260505111553 | 12 | 0 | 0.0 | 9.7 | 0.08 | 0.41 | 0.23 | 95 | 1010.0 |
| 20260505111048 | 12 | 0 | 0.0 | 8.0 | 0.08 | 0.41 | 0.23 | 95 | 1010.0 |
| 20260505110545 | 12 | 0 | 0.0 | 8.0 | 0.08 | 0.41 | 0.23 | 95 | 1010.1 |
| 20260505102045 | 12 | 0 | 0.0 | 8.0 | 0.08 | 0.30 | 0.13 | 95 | 1010.5 |
| 20260505101554 | 12 | 337 | 0.0 | 6.4 | 0.08 | 0.30 | 0.13 | 95 | 1010.4 |
| 20260505101044 | 12 | 0 | 0.0 | 6.4 | 0.10 | 0.30 | 0.13 | 95 | 1010.4 |
| 20260505100544 | 12 | 0 | 0.0 | 6.4 | 0.10 | 0.30 | 0.13 | 95 | 1010.4 |
| 20260505100049 | 12 | 0 | 0.0 | 6.4 | 0.10 | 0.30 | 0.13 | 95 | 1010.5 |
| 20260505095544 | 12 | 0 | 0.0 | 4.8 | 0.10 | 0.30 | 0.13 | 95 | 1010.5 |
| 20260505095047 | 12 | 0 | 0.0 | 3.2 | 0.10 | 0.30 | 0.13 | 95 | 1010.4 |
| 20260505094551 | 12 | 0 | 0.0 | 8.0 | 0.10 | 0.30 | 0.13 | 95 | 1010.4 |
| 20260505094044 | 12 | 0 | 0.0 | 8.0 | 0.08 | 0.28 | 0.08 | 95 | 1010.4 |
| 20260505093544 | 13 | 0 | 0.0 | 6.4 | 0.05 | 0.25 | 0.08 | 94 | 1010.4 |
| 20260505093058 | 13 | 0 | 0.0 | 6.4 | 0.05 | 0.25 | 0.08 | 95 | 1010.4 |
| 20260505092547 | 13 | 0 | 0.0 | 6.4 | 0.00 | 0.20 | 0.03 | 95 | 1010.4 |
| 20260505092046 | 13 | 0 | 0.0 | 6.4 | 0.00 | 0.20 | 0.03 | 95 | 1010.5 |
| 20260505091601 | 13 | 0 | 0.0 | 1.6 | 0.00 | 0.18 | 0.00 | 95 | 1010.5 |
| 20260505091046 | 13 | 0 | 0.0 | 6.4 | 0.00 | 0.18 | 0.00 | 94 | 1010.4 |
| 20260505090545 | 13 | 0 | 0.0 | 6.4 | 0.00 | 0.18 | 0.00 | 95 | 1010.5 |
| 20260505090052 | 13 | 0 | 0.0 | 1.6 | 0.00 | 0.18 | 0.00 | 95 | 1010.5 |
| 20260505085546 | 13 | 0 | 0.0 | 0.0 | 0.00 | 0.18 | 0.00 | 95 | 1010.5 |
| 20260505085047 | 13 | 0 | 0.0 | 0.0 | 0.00 | 0.18 | 0.00 | 95 | 1010.4 |
| 20260505084552 | 13 | 0 | 0.0 | 0.0 | 0.00 | 0.18 | 0.00 | 95 | 1010.5 |
| 20260505084049 | 13 | 0 | 0.0 | 0.0 | 0.00 | 0.18 | 0.00 | 95 | 1010.6 |
| 20260505083544 | 13 | 0 | 0.0 | 0.0 | 0.00 | 0.18 | 0.00 | 95 | 1010.5 |
| 20260505083056 | 13 | 0 | 0.0 | 0.0 | 0.00 | 0.18 | 0.00 | 95 | 1010.5 |
| 20260505082544 | 13 | 0 | 0.0 | 0.0 | 0.00 | 0.18 | 0.00 | 95 | 1010.5 |
| 20260505082044 | 13 | 0 | 0.0 | 0.0 | 0.00 | 0.18 | 0.00 | 95 | 1010.4 |
| 20260505081604 | 13 | 0 | 0.0 | 0.0 | 0.00 | 0.18 | 0.00 | 95 | 1010.4 |
| 20260505081046 | 13 | 0 | 0.0 | 0.0 | 0.00 | 0.18 | 0.00 | 95 | 1010.4 |
| 20260505080545 | 13 | 0 | 0.0 | 0.0 | 0.00 | 0.18 | 0.00 | 96 | 1010.5 |
| 20260505080050 | 13 | 0 | 0.0 | 0.0 | 0.00 | 0.18 | 0.00 | 96 | 1010.6 |
| 20260505075545 | 13 | 0 | 0.0 | 0.0 | 0.00 | 0.18 | 0.00 | 96 | 1010.6 |
| 20260505075045 | 13 | 0 | 0.0 | 0.0 | 0.00 | 0.18 | 0.00 | 96 | 1010.6 |
| 20260505074556 | 13 | 0 | 0.0 | 0.0 | 0.00 | 0.18 | 0.00 | 96 | 1010.5 |
| 20260505074045 | 13 | 0 | 0.0 | 0.0 | 0.00 | 0.18 | 0.00 | 96 | 1010.5 |
| 20260505073542 | 13 | 0 | 0.0 | 0.0 | 0.00 | 0.18 | 0.00 | 96 | 1010.6 |
| 20260505073122 | 13 | 0 | 0.0 | 0.0 | 0.00 | 0.18 | 0.00 | 96 | 1010.6 |
| 20260505072548 | 13 | 0 | 0.0 | 0.0 | 0.00 | 0.18 | 0.00 | 96 | 1010.5 |
| 20260505072046 | 13 | 0 | 0.0 | 0.0 | 0.00 | 0.18 | 0.00 | 96 | 1010.6 |
| 20260505071600 | 13 | 0 | 0.0 | 0.0 | 0.00 | 0.18 | 0.00 | 96 | 1010.7 |
| 20260505071045 | 13 | 0 | 0.0 | 0.0 | 0.00 | 0.18 | 0.00 | 96 | 1010.7 |
| 20260505070547 | 13 | 0 | 0.0 | 0.0 | 0.00 | 0.18 | 0.00 | 96 | 1010.8 |
| 20260505070101 | 13 | 0 | 0.0 | 0.0 | 0.00 | 0.18 | 0.00 | 96 | 1010.7 |
| 20260505065547 | 13 | 0 | 0.0 | 0.0 | 0.00 | 0.18 | 0.00 | 96 | 1010.9 |
| 20260505065044 | 13 | 0 | 0.0 | 0.0 | 0.00 | 0.18 | 0.00 | 96 | 1010.8 |
| 20260505064553 | 13 | 0 | 0.0 | 0.0 | 0.00 | 0.18 | 0.00 | 96 | 1010.7 |
| 20260505064047 | 13 | 0 | 0.0 | 0.0 | 0.00 | 0.18 | 0.00 | 96 | 1010.8 |
| 20260505063545 | 12 | 0 | 0.0 | 0.0 | 0.00 | 0.18 | 0.00 | 96 | 1010.8 |
| 20260505063050 | 13 | 0 | 0.0 | 0.0 | 0.00 | 0.18 | 0.00 | 96 | 1010.9 |
| 20260505062546 | 13 | 0 | 0.0 | 0.0 | 0.00 | 0.18 | 0.00 | 96 | 1010.9 |
| 20260505062051 | 13 | 0 | 0.0 | 0.0 | 0.00 | 0.18 | 0.00 | 96 | 1010.9 |
| 20260505061554 | 13 | 0 | 0.0 | 0.0 | 0.00 | 0.18 | 0.00 | 96 | 1010.8 |
| 20260505061045 | 13 | 0 | 0.0 | 0.0 | 0.00 | 0.18 | 0.00 | 96 | 1010.9 |
| 20260505060545 | 13 | 0 | 0.0 | 0.0 | 0.00 | 0.18 | 0.00 | 96 | 1011.0 |
| 20260505060057 | 13 | 0 | 0.0 | 0.0 | 0.00 | 0.18 | 0.00 | 96 | 1011.0 |
| 20260505055548 | 13 | 0 | 0.0 | 0.0 | 0.00 | 0.18 | 0.00 | 96 | 1010.9 |
| 20260505055045 | 13 | 0 | 0.0 | 0.0 | 0.00 | 0.18 | 0.00 | 96 | 1011.0 |
| 20260505054554 | 12 | 0 | 0.0 | 0.0 | 0.00 | 0.18 | 0.00 | 96 | 1011.0 |
| 20260505054044 | 13 | 0 | 0.0 | 0.0 | 0.00 | 0.18 | 0.00 | 96 | 1010.9 |
| 20260505053547 | 13 | 0 | 0.0 | 0.0 | 0.00 | 0.18 | 0.00 | 96 | 1011.0 |
| 20260505053052 | 13 | 0 | 0.0 | 0.0 | 0.00 | 0.18 | 0.00 | 96 | 1011.0 |
| 20260505052544 | 13 | 0 | 0.0 | 0.0 | 0.00 | 0.18 | 0.00 | 96 | 1011.0 |
| 20260505052046 | 12 | 0 | 0.0 | 0.0 | 0.00 | 0.18 | 0.00 | 96 | 1011.0 |
| 20260505051602 | 12 | 0 | 0.0 | 0.0 | 0.00 | 0.18 | 0.00 | 96 | 1011.0 |
| 20260505051045 | 12 | 0 | 0.0 | 0.0 | 0.00 | 0.18 | 0.00 | 96 | 1011.0 |
| 20260505050548 | 13 | 0 | 0.0 | 0.0 | 0.00 | 0.18 | 0.00 | 96 | 1011.0 |
| 20260505050107 | 13 | 0 | 0.0 | 0.0 | 0.00 | 0.18 | 0.00 | 96 | 1010.9 |
| 20260505041559 | 12 | 0 | 0.0 | 0.0 | 0.00 | 0.18 | 0.00 | 96 | 1011.0 |
| 20260505041045 | 12 | 0 | 0.0 | 0.0 | 0.00 | 0.18 | 0.00 | 96 | 1011.0 |
| 20260505040544 | 12 | 0 | 0.0 | 0.0 | 0.00 | 0.18 | 0.00 | 96 | 1011.0 |
| 20260505040057 | 12 | 0 | 0.0 | 0.0 | 0.00 | 0.18 | 0.00 | 96 | 1011.1 |
| 20260505035544 | 12 | 0 | 0.0 | 0.0 | 0.00 | 0.18 | 0.00 | 96 | 1011.1 |
| 20260505035045 | 12 | 0 | 0.0 | 0.0 | 0.00 | 0.18 | 0.00 | 96 | 1011.1 |
| 20260505034552 | 12 | 0 | 0.0 | 0.0 | 0.00 | 0.18 | 0.00 | 96 | 1011.0 |
| 20260505034045 | 12 | 0 | 0.0 | 0.0 | 0.00 | 0.18 | 0.00 | 96 | 1011.1 |
| 20260505033545 | 12 | 0 | 0.0 | 0.0 | 0.00 | 0.18 | 0.00 | 96 | 1011.2 |
| 20260505033054 | 12 | 0 | 0.0 | 0.0 | 0.00 | 0.18 | 0.00 | 96 | 1011.3 |
| 20260505032544 | 12 | 0 | 0.0 | 0.0 | 0.00 | 0.18 | 0.00 | 96 | 1011.3 |
| 20260505032050 | 12 | 0 | 0.0 | 0.0 | 0.00 | 0.18 | 0.00 | 96 | 1011.3 |
| 20260505031554 | 12 | 0 | 0.0 | 0.0 | 0.00 | 0.18 | 0.00 | 96 | 1011.3 |
| 20260505031045 | 12 | 0 | 0.0 | 0.0 | 0.00 | 0.18 | 0.00 | 96 | 1011.3 |
| 20260505030547 | 12 | 0 | 0.0 | 0.0 | 0.00 | 0.18 | 0.00 | 96 | 1011.4 |
| 20260505030052 | 12 | 0 | 0.0 | 0.0 | 0.00 | 0.18 | 0.00 | 96 | 1011.4 |
| 20260505025546 | 12 | 0 | 0.0 | 0.0 | 0.00 | 0.18 | 0.00 | 96 | 1011.5 |
| 20260505025045 | 12 | 0 | 0.0 | 0.0 | 0.00 | 0.18 | 0.00 | 96 | 1011.4 |
| 20260505024600 | 12 | 0 | 0.0 | 0.0 | 0.00 | 0.18 | 0.00 | 96 | 1011.3 |
| 20260505024045 | 13 | 0 | 0.0 | 0.0 | 0.00 | 0.18 | 0.00 | 96 | 1011.4 |
| 20260505023546 | 12 | 0 | 0.0 | 0.0 | 0.00 | 0.18 | 0.00 | 96 | 1011.4 |
| 20260505023054 | 12 | 0 | 0.0 | 0.0 | 0.00 | 0.18 | 0.00 | 96 | 1011.5 |
| 20260505022545 | 12 | 0 | 0.0 | 0.0 | 0.00 | 0.18 | 0.00 | 96 | 1011.6 |
| 20260505022045 | 12 | 0 | 0.0 | 0.0 | 0.00 | 0.18 | 0.00 | 96 | 1011.6 |
| 20260505021552 | 12 | 0 | 0.0 | 0.0 | 0.00 | 0.18 | 0.00 | 96 | 1011.6 |
| 20260505021045 | 12 | 0 | 0.0 | 0.0 | 0.00 | 0.18 | 0.00 | 96 | 1011.7 |
| 20260505020611 | 12 | 0 | 0.0 | 0.0 | 0.00 | 0.18 | 0.00 | 96 | 1011.8 |
| 20260505020052 | 12 | 0 | 0.0 | 0.0 | 0.00 | 0.18 | 0.00 | 96 | 1011.7 |
| 20260505015545 | 12 | 0 | 0.0 | 0.0 | 0.00 | 0.18 | 0.00 | 96 | 1011.6 |
| 20260505015045 | 12 | 0 | 0.0 | 0.0 | 0.00 | 0.18 | 0.00 | 96 | 1011.8 |
| 20260505014551 | 12 | 0 | 0.0 | 0.0 | 0.00 | 0.18 | 0.00 | 96 | 1011.8 |
| 20260505014046 | 12 | 0 | 0.0 | 0.0 | 0.00 | 0.18 | 0.00 | 96 | 1011.8 |
| 20260505013544 | 12 | 0 | 0.0 | 0.0 | 0.00 | 0.18 | 0.00 | 96 | 1011.7 |
| 20260505013111 | 12 | 0 | 0.0 | 0.0 | 0.00 | 0.18 | 0.00 | 96 | 1011.8 |
| 20260505012549 | 13 | 0 | 0.0 | 0.0 | 0.00 | 0.18 | 0.00 | 96 | 1011.8 |
| 20260505012045 | 12 | 0 | 0.0 | 0.0 | 0.00 | 0.18 | 0.00 | 95 | 1011.9 |
| 20260505011554 | 12 | 0 | 0.0 | 0.0 | 0.00 | 0.18 | 0.00 | 95 | 1011.9 |
| 20260505011043 | 12 | 0 | 0.0 | 0.0 | 0.00 | 0.18 | 0.00 | 95 | 1012.0 |
| 20260505010544 | 13 | 0 | 0.0 | 0.0 | 0.00 | 0.18 | 0.00 | 95 | 1012.1 |
| 20260505005546 | 13 | 0 | 0.0 | 0.0 | 0.00 | 0.18 | 0.00 | 96 | 1012.2 |
| 20260505005044 | 13 | 0 | 0.0 | 0.0 | 0.00 | 0.18 | 0.00 | 96 | 1012.2 |
| 20260505004552 | 13 | 0 | 0.0 | 0.0 | 0.00 | 0.18 | 0.00 | 96 | 1012.3 |
| 20260505004044 | 13 | 0 | 0.0 | 0.0 | 0.00 | 0.18 | 0.00 | 96 | 1012.3 |
| 20260505003548 | 13 | 0 | 0.0 | 0.0 | 0.00 | 0.18 | 0.00 | 95 | 1012.2 |
| 20260505003057 | 13 | 0 | 0.0 | 0.0 | 0.00 | 0.18 | 0.00 | 95 | 1012.3 |
| 20260505002545 | 13 | 0 | 0.0 | 0.0 | 0.00 | 0.18 | 0.00 | 95 | 1012.4 |
| 20260505002044 | 13 | 0 | 0.0 | 0.0 | 0.00 | 0.18 | 0.00 | 95 | 1012.3 |
| 20260505001551 | 13 | 0 | 0.0 | 0.0 | 0.00 | 0.18 | 0.00 | 95 | 1012.5 |
| 20260505001044 | 13 | 0 | 0.0 | 0.0 | 0.00 | 0.18 | 0.00 | 95 | 1012.5 |
| 20260505000546 | 13 | 0 | 0.0 | 0.0 | 0.00 | 0.18 | 0.00 | 95 | 1012.5 |
| 20260505000059 | 13 | 0 | 0.0 | 0.0 | 0.00 | 0.18 | 0.00 | 95 | 1012.6 |